Location: Boncourt
(49.6160°N, 3.9448°E)
Time: 13:44:14
(UTC+00:00)

Cosmos 909 Rocket - Visible Passes

Search period start: 25 September 2023 00:00
Search period end: 05 October 2023 00:00
Orbit: 991 x 2088 km, 65.9° (Epoch: 24 September)

Date Brightness Start Highest point End Pass type
(mag) Time Alt. Az. Time Alt. Az. Time Alt. Az.
25 Sep 5.9 00:13:01 10° NW 00:15:27 25° NW 00:15:27 25° NW visible
25 Sep 6.1 19:33:16 10° NW 19:37:50 20° N 19:42:44 10° NE visible
25 Sep 5.4 21:34:35 10° NNW 21:40:33 33° NNE 21:41:03 33° NE visible
25 Sep 5.6 23:34:40 10° NW 23:37:55 32° NW 23:37:55 32° NW visible
26 Sep 6.1 18:54:19 10° NW 18:58:53 20° N 19:03:46 10° NE visible
26 Sep 5.7 20:56:14 10° NNW 21:01:49 28° NNE 21:03:32 25° NE visible
26 Sep 5.4 22:56:23 10° NW 23:00:25 40° NNW 23:00:25 40° NNW visible
27 Sep 6.6 00:57:12 10° NW 00:57:18 10° NW 00:57:18 10° NW visible
27 Sep 6.0 18:15:13 10° WNW 18:19:58 22° NNW 18:25:00 10° NE visible
27 Sep 5.8 20:17:48 10° NW 20:23:00 24° NNE 20:26:03 18° NE visible
27 Sep 5.2 22:18:07 10° NW 22:22:56 46° N 22:22:56 46° N visible
28 Sep 6.4 00:18:33 10° NW 00:19:49 16° NW 00:19:49 16° NW visible
28 Sep 5.9 19:39:15 10° NW 19:44:07 21° NNE 19:48:36 12° NE visible
28 Sep 5.1 21:39:51 10° NNW 21:45:29 44° NNE 21:45:29 44° NNE visible
28 Sep 6.1 23:40:04 10° NW 23:42:22 23° NW 23:42:22 23° NW visible
29 Sep 6.0 19:00:32 10° NW 19:05:11 20° N 19:10:14 10° NE visible
29 Sep 5.2 21:01:35 10° NNW 21:07:46 37° NE 21:08:03 37° NE visible
29 Sep 5.7 23:01:41 10° NW 23:04:56 32° NW 23:04:56 32° NW visible
30 Sep 6.0 18:21:39 10° NW 18:26:14 20° N 18:31:09 10° NE visible
30 Sep 5.5 20:23:16 10° NNW 20:29:05 30° NNE 20:30:38 28° NE visible
30 Sep 5.3 22:23:22 10° NW 22:27:31 42° NW 22:27:31 42° NW visible
01 Oct 5.7 19:44:52 10° NNW 19:50:18 26° NNE 19:53:15 20° ENE visible
01 Oct 5.0 21:45:05 10° NW 21:50:08 51° N 21:50:08 51° N visible
01 Oct 6.4 23:45:41 10° NW 23:47:02 16° WNW 23:47:02 16° WNW visible
02 Oct 5.8 19:06:22 10° NW 19:11:27 23° NNE 19:15:53 13° ENE visible
02 Oct 4.9 21:06:50 10° NNW 21:12:46 50° NNE 21:12:46 50° NNE visible
02 Oct 6.1 23:07:08 10° NW 23:09:40 24° WNW 23:09:40 24° WNW visible
03 Oct 5.9 18:27:45 10° NW 18:32:32 21° N 18:37:47 10° ENE visible
03 Oct 5.0 20:28:33 10° NNW 20:34:57 41° NE 20:35:26 41° NE visible
03 Oct 5.7 22:28:42 10° NW 22:32:19 34° NW 22:32:19 34° NW visible
04 Oct 5.9 17:48:58 10° NW 17:53:35 20° N 17:58:37 10° NE visible
04 Oct 5.3 19:50:15 10° NNW 19:56:19 34° NNE 19:58:07 30° ENE visible
04 Oct 5.2 21:50:22 10° NW 21:55:00 48° NW 21:55:00 48° NW visible
